Henderson, KY

8:16 AM CST on December 11, 2019 (GMT -0600)
Henderson City-County

Weather History for KEHR - October, 2019

Change the Weather History Date:

Tuesday, October 15, 2019

  Actual Average Record
Temperature  
Mean Temperature 59 °F -  
Max Temperature 77 °F 72 °F 89 °F (1935)
Min Temperature 41 °F 49 °F 26 °F (1939)
Degree Days  
Heating Degree Days 6    
Growing Degree Days 9 (Base 50)    
Moisture  
Dew Point 55 °F    
Average Humidity 79    
Maximum Humidity 96    
Minimum Humidity 52    
Precipitation  
Precipitation 0.38 in - - ()
Sea Level Pressure  
Sea Level Pressure 29.91 in    
Wind  
Wind Speed 4 mph (SW)    
Max Wind Speed 15 mph    
Max Gust Speed 22 mph    
Visibility 10 miles    
Events Rain , Thunderstorm    
Averages and records for this station are not official NWS values.
T = Trace of Precipitation, MM = Missing Value Source: NWS Daily Summary

Daily Weather History Graph

Daily Weather History Graph

Search for Another Location

Airport or City:

Astronomy

Oct. 15, 2019 Rise Set
Actual Time 6:58 AM CDT 6:13 PM CDT
Civil Twilight 6:32 AM CDT 6:39 PM CDT
Nautical Twilight 6:02 AM CDT 7:10 PM CDT
Astronomical Twilight 5:31 AM CDT 7:40 PM CDT
Moon 7:34 PM CDT (10/15) 8:28 AM CDT (10/15)
Length of Visible Light 12h 07m
Length of Day
11h 14m
Full, 97% of the Moon is Illuminated
Oct 15
Full
Oct 21
Last Quarter
Oct 27
New
Nov 4
First Quarter
Nov 12
Full

Hourly Weather History & Observations

Time (CDT) Temp. Dew Point Humidity Pressure Visibility Wind Dir Wind Speed Gust Speed Precip Events Conditions
12:56 AM 44.1 °F 39.9 °F 85% 30.06 in 10.0 mi Calm Calm - N/A   Clear
1:56 AM 42.1 °F 39.0 °F 89% 30.06 in 10.0 mi Calm Calm - N/A   Clear
2:56 AM 41.0 °F 39.0 °F 93% 30.06 in 10.0 mi Calm Calm - N/A   Clear
3:56 AM 44.1 °F 41.0 °F 89% 30.04 in 10.0 mi Calm Calm - N/A   Clear
4:56 AM 46.9 °F 43.0 °F 86% 30.04 in 10.0 mi Calm Calm - N/A   Mostly Cloudy
5:56 AM 46.9 °F 44.1 °F 90% 30.04 in 10.0 mi Calm Calm - N/A   Mostly Cloudy
6:56 AM 48.9 °F 45.0 °F 86% 30.04 in 10.0 mi Calm Calm - N/A   Scattered Clouds
7:56 AM 51.1 °F 46.9 °F 86% 30.03 in 10.0 mi Calm Calm - N/A   Clear
8:56 AM 59.0 °F 50.0 °F 72% 30.01 in 10.0 mi SSE 6.9 mph - N/A   Clear
9:56 AM 66.9 °F 51.1 °F 57% 29.99 in 10.0 mi SSW 10.4 mph - N/A   Clear
10:56 AM 71.1 °F 54.0 °F 55% 29.97 in 10.0 mi SW 10.4 mph - N/A   Clear
11:56 AM 73.9 °F 55.0 °F 52% 29.94 in 10.0 mi SSW 13.8 mph - N/A   Clear
12:56 PM 75.9 °F 57.0 °F 52% 29.92 in 10.0 mi SSW 10.4 mph 21.9 mph N/A   Mostly Cloudy
1:56 PM 77.0 °F 57.9 °F 52% 29.89 in 10.0 mi SW 15.0 mph - N/A   Overcast
2:56 PM 75.9 °F 57.0 °F 52% 29.86 in 10.0 mi South 13.8 mph - N/A   Overcast
3:56 PM 73.9 °F 59.0 °F 59% 29.85 in 10.0 mi SW 11.5 mph - N/A   Overcast
4:56 PM 73.0 °F 60.1 °F 64% 29.85 in 10.0 mi SSW 12.7 mph - N/A   Overcast
5:56 PM 72.0 °F 61.0 °F 68% 29.85 in 10.0 mi SSW 8.1 mph - 0.00 in   Mostly Cloudy
6:56 PM 70.0 °F 61.0 °F 73% 29.84 in 10.0 mi SW 4.6 mph - N/A Thunderstorm Overcast
7:04 PM 69.8 °F 60.8 °F 73% 29.83 in 10.0 mi SW 5.8 mph - N/A Thunderstorm Overcast
7:16 PM 69.8 °F 60.8 °F 73% 29.83 in 10.0 mi SW 4.6 mph - N/A   Overcast
7:56 PM 66.0 °F 63.0 °F 90% 29.84 in 10.0 mi NW 9.2 mph - 0.00 in Rain Light Rain
8:13 PM 64.4 °F 62.6 °F 94% 29.85 in 10.0 mi WNW 6.9 mph - 0.00 in Rain , Thunderstorm Light Rain
8:21 PM 64.4 °F 62.6 °F 94% 29.85 in 6.0 mi West 6.9 mph - 0.10 in Rain , Thunderstorm Heavy Thunderstorms and Rain
8:56 PM 64.0 °F 63.0 °F 96% 29.82 in 10.0 mi West 5.8 mph - 0.34 in Rain , Thunderstorm Light Thunderstorms and Rain
9:26 PM 64.4 °F 62.6 °F 94% 29.83 in 10.0 mi South 3.5 mph - 0.03 in Rain Light Rain
9:56 PM 64.0 °F 63.0 °F 96% 29.83 in 10.0 mi Calm Calm - 0.03 in   Mostly Cloudy
10:21 PM 64.4 °F 62.6 °F 94% 29.83 in 10.0 mi SSW 3.5 mph - N/A   Overcast
10:30 PM 64.4 °F 62.6 °F 94% 29.83 in 10.0 mi SW 4.6 mph - N/A   Overcast
10:56 PM 64.0 °F 63.0 °F 96% 29.82 in 9.0 mi West 4.6 mph - N/A   Overcast
11:48 PM 64.4 °F 62.6 °F 94% 29.83 in 10.0 mi WNW 11.5 mph - 0.01 in   Mostly Cloudy
11:56 PM 64.9 °F 63.0 °F 93% 29.83 in 10.0 mi WNW 11.5 mph - 0.01 in   Mostly Cloudy